N24KM KMVY-KACK

Flight info

Callsign N24KM
Flight time 0h 14m
Altitude VFR
Route
Aircraft C182/L-DOV/C

Departure

Time 2026-05-04 19:47
Airport Martha's Vineyard Airport (KMVY)

Arrival

Time 2026-05-04 20:01
Airport Nantucket Memorial Airport (KACK)
Time Latitude Longitude Altitude Speed Heading
2026-05-04 19:45 41.40309 -70.60087 381 ft 50 kts 212°
2026-05-04 19:45 41.40036 -70.60361 225 ft 49 kts 220°
2026-05-04 19:45 41.39788 -70.60662 116 ft 49 kts 221°
2026-05-04 19:45 41.39544 -70.60934 64 ft 37 kts 220°
2026-05-04 19:46 41.39322 -70.61185 64 ft 62 kts 220°
2026-05-04 19:46 41.38915 -70.61642 164 ft 85 kts 221°
2026-05-04 19:46 41.38427 -70.62159 362 ft 92 kts 207°
2026-05-04 19:46 41.37766 -70.62001 567 ft 114 kts 161°
2026-05-04 19:47 41.37200 -70.61150 673 ft 136 kts 128°
2026-05-04 19:47 41.36925 -70.59890 726 ft 149 kts 105°
2026-05-04 19:47 41.36853 -70.58477 765 ft 157 kts 103°
2026-05-04 19:47 41.36732 -70.57038 766 ft 159 kts 110°
2026-05-04 19:48 41.36515 -70.55587 780 ft 159 kts 111°
2026-05-04 19:48 41.36311 -70.54169 905 ft 155 kts 109°
2026-05-04 19:48 41.36132 -70.52772 1028 ft 152 kts 110°
2026-05-04 19:48 41.35954 -70.51377 1157 ft 154 kts 110°
2026-05-04 19:49 41.35878 -70.49926 1283 ft 159 kts 102°
2026-05-04 19:49 41.35866 -70.48448 1411 ft 160 kts 101°
2026-05-04 19:49 41.35764 -70.46971 1446 ft 162 kts 111°
2026-05-04 19:49 41.35548 -70.45473 1446 ft 166 kts 112°
2026-05-04 19:50 41.35333 -70.43976 1450 ft 168 kts 112°
2026-05-04 19:50 41.35107 -70.42443 1451 ft 169 kts 112°
2026-05-04 19:50 41.34876 -70.40906 1453 ft 170 kts 112°
2026-05-04 19:50 41.34637 -70.39365 1453 ft 170 kts 112°
2026-05-04 19:51 41.34278 -70.37905 1447 ft 164 kts 123°
2026-05-04 19:51 41.33863 -70.36484 1447 ft 165 kts 123°
2026-05-04 19:51 41.33449 -70.35057 1447 ft 165 kts 123°
2026-05-04 19:51 41.33034 -70.33627 1452 ft 166 kts 123°
2026-05-04 19:52 41.32565 -70.32250 1451 ft 161 kts 132°
2026-05-04 19:52 41.32022 -70.30951 1467 ft 161 kts 132°
2026-05-04 19:52 41.31485 -70.29664 1468 ft 161 kts 132°
2026-05-04 19:52 41.30941 -70.28360 1469 ft 161 kts 132°
2026-05-04 19:53 41.30396 -70.27057 1471 ft 161 kts 132°
2026-05-04 19:53 41.29848 -70.25751 1475 ft 162 kts 132°
2026-05-04 19:53 41.29297 -70.24442 1472 ft 161 kts 132°
2026-05-04 19:53 41.28750 -70.23144 1471 ft 160 kts 132°
2026-05-04 19:54 41.28208 -70.21859 1473 ft 159 kts 133°
2026-05-04 19:54 41.27668 -70.20577 1473 ft 159 kts 132°
2026-05-04 19:54 41.27130 -70.19300 1475 ft 159 kts 132°
2026-05-04 19:54 41.26594 -70.18038 1475 ft 159 kts 133°
2026-05-04 19:55 41.26050 -70.16760 1475 ft 159 kts 133°
2026-05-04 19:55 41.25532 -70.15455 1461 ft 164 kts 123°
2026-05-04 19:55 41.25340 -70.13907 1402 ft 177 kts 103°
2026-05-04 19:55 41.25265 -70.12231 1982 ft 175 kts 98°
2026-05-04 19:56 41.25682 -70.10710 1878 ft 175 kts 60°
2026-05-04 19:56 41.26278 -70.09414 1718 ft 156 kts 57°
2026-05-04 19:56 41.26888 -70.08245 1487 ft 154 kts 53°
2026-05-04 19:56 41.27506 -70.07091 1224 ft 151 kts 53°
2026-05-04 19:57 41.28064 -70.05970 1084 ft 139 kts 68°
2026-05-04 19:57 41.28313 -70.04838 1014 ft 122 kts 71°
2026-05-04 19:57 41.28840 -70.04025 879 ft 116 kts 28°
2026-05-04 19:57 41.29555 -70.03550 776 ft 115 kts 16°
2026-05-04 19:58 41.30077 -70.02788 699 ft 115 kts 76°
2026-05-04 19:58 41.30020 -70.01792 657 ft 105 kts 131°
2026-05-04 19:58 41.29508 -70.01319 660 ft 83 kts 189°
2026-05-04 19:58 41.28976 -70.01639 616 ft 93 kts 220°
2026-05-04 19:59 41.28521 -70.02163 582 ft 72 kts 226°
2026-05-04 19:59 41.28182 -70.02586 490 ft 65 kts 227°
2026-05-04 19:59 41.27854 -70.03024 438 ft 69 kts 229°
2026-05-04 19:59 41.27533 -70.03476 392 ft 68 kts 227°
2026-05-04 20:00 41.27205 -70.03914 339 ft 65 kts 225°
2026-05-04 20:00 41.26879 -70.04352 283 ft 68 kts 226°
2026-05-04 20:00 41.26533 -70.04819 208 ft 74 kts 226°
2026-05-04 20:00 41.26169 -70.05298 124 ft 70 kts 226°
2026-05-04 20:01 41.25866 -70.05699 55 ft 58 kts 225°
2026-05-04 20:01 41.25618 -70.06030 41 ft 37 kts 226°
2026-05-04 20:01 41.25476 -70.06232 41 ft 23 kts 255°
2026-05-04 20:01 41.25527 -70.06320 40 ft 0 kts 320°
2026-05-04 20:02 41.25529 -70.06322 40 ft 3 kts 319°
2026-05-04 20:02 41.25570 -70.06383 40 ft 11 kts 311°
2026-05-04 20:02 41.25583 -70.06468 40 ft 11 kts 219°
2026-05-04 20:03 41.25556 -70.06472 40 ft 0 kts 172°